Weather Roundup
Issued by NWS

Home | Current Version | Previous Version | Graphics & Text | Print | Product List | Glossary Off
Versions: 1 2 3 4 5 6 7 8 9 10 11 12 13 14 15 16 17 18 19 20 21 22 23 24 25 26 27 28 29 30 31 32 33 34 35 36 37 38 39 40 41 42 43 44 45 46 47 48 49 50

000
NZUS93 KARX 191510
HRRWXR

CURRENT HOURLY OBSERVATIONS ACROSS
MUCH OF THE UPPER MISSISSIPPI VALLEY
NATIONAL WEATHER SERVICE LA CROSSE WI
1000 AM CDT SUN APR 19 2015


...SOUTHEAST MINNESOTA...


CITY           SKY/WX    TMP DP  RH WIND       PRES   REMARKS
ROCHESTER      CLOUDY    53  45  74 S13       29.72F
ROCHESTER/MAYO CLOUDY    53  44  71 SE6       29.71F
WINONA         CLOUDY    54  41  62 SE9       29.73F
AUSTIN         CLOUDY    54  48  82 S8        29.70F
ALBERT LEA     CLOUDY    55  55 100 S5        29.69F FOG
DODGE CENTER   CLOUDY    55  48  76 S15       29.70F
PRESTON        CLOUDY    53  44  73 SE8       29.73F
OWATONNA       PTSUNNY   57  54  88 S9        29.69S
FARIBAULT      CLOUDY    57  55  94 S8        29.68F
$$

...ELSEWHERE IN MINNESOTA...


CITY           SKY/WX    TMP DP  RH WIND       PRES   REMARKS
MINNEAPOLIS    CLOUDY    52  47  83 SE9       29.68F
INTNL FALLS    LGT RAIN  41  39  93 E6        29.69F
DULUTH         LGT RAIN  40  37  89 SE18G26   29.69F WCI  31
RED WING       CLOUDY    54  41  62 SE5       29.70F
REDWOOD FALLS  CLOUDY    53  49  86 NW15G21   29.68F
MANKATO        CLOUDY    57  52  82 SW10      29.68F
WORTHINGTON    CLOUDY    52  46  82 NW16      29.71S
FAIRMONT       CLOUDY    55  46  71 SW6       29.69F
$$

...SOUTHWEST WISCONSIN...


CITY           SKY/WX    TMP DP  RH WIND       PRES   REMARKS
LA CROSSE      CLOUDY    58  38  47 SE8       29.74F
PRAIRIE DU CHI CLOUDY    56  36  47 SE8       29.75F
BOSCOBEL       CLOUDY    59  35  40 CALM      29.76F
LONE ROCK      CLOUDY    60  38  43 MISG      29.76F
PLATTEVILLE    CLOUDY    60  39  46 SE10      29.75F
FORT MC COY    CLOUDY    54  35  47 CALM      29.77F
CAMP DOUGLAS   CLOUDY    55  34  44 SE9       29.77F
VIROQUA        CLOUDY    54  34  46 SE10      29.76F
WIS DELLS      PTSUNNY   59  33  37 SE7       29.77F
$$

...ELSEWHERE IN WISCONSIN...


CITY           SKY/WX    TMP DP  RH WIND       PRES   REMARKS
MILWAUKEE      PTSUNNY   50  33  52 E9        29.85F
MADISON        CLOUDY    61  35  37 SE13      29.78F
GREEN BAY      PTSUNNY   52  32  46 SE14      29.88F
EAU CLAIRE     CLOUDY    51  36  56 SE9       29.73F
BLACK RVR FLS  CLOUDY    50  38  63 E3        29.76F
MEDFORD        CLOUDY    48  32  53 SE13G18   29.78F
WAUSAU         MOSUNNY   53  31  42 SE14      29.79F
WIS RAPIDS     CLOUDY    55  30  38 SE7       29.81F
MARSHFIELD     CLOUDY    53  31  42 SE14      29.79F
RICE LAKE      DRIZZLE   47  37  67 SE13      29.74F
$$

...NORTHEAST IOWA...


CITY           SKY/WX    TMP DP  RH WIND       PRES   REMARKS
DECORAH        CLOUDY    52  45  76 SE8       29.72F
MASON CITY     CLOUDY    59 N/A N/A S7        29.70F HAZE
CHARLES CITY   CLOUDY    55  50  82 SE9       29.71F
OELWEIN        PTSUNNY   52  50  93 E8        29.72F
$$

...ELSEWHERE IN IOWA...


CITY           SKY/WX    TMP DP  RH WIND       PRES   REMARKS
DES MOINES     CLOUDY    60  56  86 CALM      29.69F
IOWA CITY      CLOUDY    57  47  69 NE6       29.72F
FORT DODGE     CLOUDY    57  54  88 SW5       29.70S
$$

...NORTHERN ILLINOIS...


CITY           SKY/WX    TMP DP  RH WIND       PRES   REMARKS
CHICAGO-OHARE  PTSUNNY   61  35  37 E10       29.78F
CHICAGO-MIDWAY PTSUNNY   61  37  41 E13       29.78F
MOLINE         PTSUNNY   64  45  49 E8        29.70F
ROCKFORD       PTSUNNY   66  39  37 SE15      29.77F
PEORIA         CLOUDY    66  48  52 E9        29.70F
$$

NOTE: "FAIR" INDICATES FEW OR NO CLOUDS BELOW 12,000 FEET WITH NO
SIGNIFICANT WEATHER AND/OR OBSTRUCTIONS TO VISIBILITY. WIND
SPEEDS ARE IN MILES-PER-HOUR.



USA.gov is the U.S. government's official web portal to all federal, state and local government web resources and services.